{"data":{"norad_id":51113,"epoch":"2026-09-20T04:00:03.000096Z","epoch_age_seconds":76922,"freshness":"FRESH","line1":"1 51113U 22005K   26263.16670139  .00011686  00000+0  35658-3 0  9993","line2":"2 51113  53.1599 127.4357 0001326  82.2447  48.4561 15.34388486  5714","mean_motion":15.34388486,"eccentricity":0.0001326,"inclination_deg":53.1599,"raan_deg":127.4357,"arg_perigee_deg":82.2447,"mean_anomaly_deg":48.4561,"bstar":0.00035658,"rev_number":571,"period_min":93.84846231178,"perigee_km":461.83036250185,"apogee_km":463.64456240929,"semimajor_km":6840.8744624556,"source":"CELESTRAK","updated_at":"2026-09-20T09:00:39.585585Z"}}